Погода в Ельцовке

Россия / Алтайский край     53°03′34″N   85°07′58″E
темп.,
°C
ветер,
м/с
пор.,
м/с
влажн.,
%
обл.,
%
осадки,
мм/ч
давл.,
гПа
погр.,
м
17 сентября, пт
пт1701:00+12ююз335628 0.0 101026
04:00+11ю445984 0.0 101056
07:00+10ю46615 0.0 101082
10:00+16ю5744100 0.0 1008265
13:00+22ю6826100 0.0 10061172
16:00+25ююз6101978 0.0 10042446
19:00+20ю453158 0.0 100361
22:00+17ююв61537100 0.0 1001251
18 сентября, сб
сб1801:00+18ююв81833100 0.0 998341
04:00+15зсз101762100 0.0 10021031
07:00+11зюз7128854 0.9 1007857
10:00+12з57704 0.1 1010951
13:00+15зюз694424 0.1 10101799
16:00+17зюз693714 0.0 10102078
19:00+13з225093 0.0 101029
22:00+10с116133 0.0 101214
19 сентября, вс
вс1901:00+8с11625 0.0 101210
04:00+7ююз225788 0.0 101111
07:00+6ю33615 0.0 101142
10:00+12ююз3544100 0.0 1009286
13:00+17ююз3532100 0.0 10071225
16:00+19юз3630100 0.0 10051946
19:00+15в4540100 0.0 100389
22:00+13юз596198 0.1 1004294
20 сентября, пн
пн2001:00+7з61185100 0.4 1008575
04:00+5зюз511904 0.2 1010428
07:00+3ююз3992100 0.2 1011219
10:00+8зюз71263100 0.1 10121585
13:00+8зюз81253100 0.4 10121727
16:00+7зюз81464100 0.3 10141603
19:00+6з7115980 0.4 10151070
22:00+4з5117076 0.1 1018743
21 сентября, вт
вт2101:00+2зюз4107916 0.1 1019340
04:000зюз410935 0.0 1021277
07:00−1зюз499792 0.0 1023257
10:00+2зюз578499 0.1 1024539
13:00+4зюз5669100 0.1 10251129
16:00+5з4660100 0.0 10261248
19:00+5юз3561100 0.0 1026398
22:00+3юз246894 0.0 1026100